Lid_Strength_Index
0 -1 -1 -1 -1 -1 -0 -0 -0 -0 -0 -0 -0 -0 -0 -0 0 2 4 2 5 9 10 8 7 9 8 9 12 13 10 9 10 13 13 13 14 13 14 13 14 15 16 16 15 17 19 13 14 13 12 16 16 15
-0 -0 -1 -1 -1 -1 -1 -1 -0 -0 -1 -0 -0 -0 -0 -0 0 1 5 3 3 7 8 6 6 6 5 5 7 9 10 14 8 11 11 11 13 12 13 16 12 15 13 15 14 14 11 14 12 13 14 15 15 15
-0 -0 -0 -1 -1 -1 -1 -1 -0 -0 -0 -0 -0 -0 -0 -0 -0 1 6 4 4 7 8 8 9 6 4 4 3 8 7 7 9 8 11 12 14 13 15 14 13 13 12 12 12 12 13 12 14 14 14 15 15 15
-1 -0 -1 -1 -1 -1 -1 -1 -1 -0 -0 0 0 0 -0 -0 -0 0 5 5 4 6 10 10 8 7 4 4 3 3 4 4 6 7 9 10 12 12 15 13 14 14 12 12 13 14 15 14 14 13 14 14 14 14
-0 -1 -1 -1 -1 -1 -1 -1 -1 -0 0 0 0 0 -0 -0 -0 1 4 4 2 6 11 10 8 7 5 4 4 3 4 5 7 8 9 11 11 11 16 14 14 13 13 12 12 12 11 11 12 12 12 12 13 15
-0 -0 -1 -1 -1 -1 -1 -1 -0 0 0 0 0 -0 -0 -1 -1 2 7 4 2 2 7 12 9 11 9 7 5 5 4 5 6 8 9 8 9 10 12 13 12 12 12 12 11 11 12 12 12 12 12 12 14 15
-0 -0 -0 -0 -0 -1 -1 -1 -0 0 0 0 -0 -0 -1 -1 1 5 10 6 1 1 11 14 14 11 8 7 6 7 6 6 7 7 9 10 11 9 12 13 12 13 12 14 13 12 13 12 12 11 11 14 15 17
-0 -0 -0 -0 -1 -1 -1 -1 -0 0 0 -0 -0 -1 -1 -1 0 3 3 0 -0 4 7 13 17 12 8 9 10 7 9 7 7 8 10 11 11 10 12 11 14 14 14 14 14 14 14 14 12 13 14 14 16 17
-0 -0 -0 -0 -1 -1 -0 -0 -0 -0 -0 -1 -1 -1 0 3 5 7 -1 -1 1 6 10 10 16 19 8 10 10 9 9 12 9 10 11 11 13 13 13 13 15 16 15 15 15 14 15 15 15 15 15 15 17 18
-0 -0 -0 -1 -1 -0 -0 -0 -0 -1 -1 -1 1 4 7 8 1 1 4 8 8 6 7 15 16 14 9 10 11 13 13 12 15 12 10 12 14 17 19 20 20 20 20 19 16 17 17 17 17 17 18 18 18 19
-0 -0 -0 -0 -0 -0 -0 -1 -1 -1 -1 3 6 7 6 1 6 9 10 12 18 15 11 12 11 12 8 12 12 9 14 14 15 13 14 15 16 16 20 22 22 22 21 22 20 20 19 18 19 20 21 21 21 21
-0 -0 -0 -0 -0 -0 -1 -1 -1 1 4 5 6 4 6 9 11 12 17 15 15 18 17 13 14 9 9 9 12 12 13 15 16 17 16 17 18 22 23 24 25 25 24 24 23 23 23 24 23 23 24 25 26 25
-0 -0 -0 -0 -0 -0 -1 -1 -1 -0 1 5 7 10 9 12 15 18 17 22 25 22 15 14 12 9 10 9 10 12 15 16 16 16 17 19 25 28 28 28 29 28 26 26 26 26 26 27 27 27 28 29 29 29
-0 -0 -0 0 0 -0 -0 -1 -1 -0 4 8 10 14 15 17 18 21 22 23 19 17 16 18 16 11 8 11 11 14 14 15 18 19 20 29 31 32 31 31 33 31 30 29 29 28 28 29 30 31 31 30 30 31
-0 -0 -0 0 -0 -0 -0 -1 -1 3 7 11 15 18 21 23 19 19 22 21 22 21 19 11 14 10 14 11 12 15 17 18 17 19 30 31 31 31 31 31 31 31 31 31 30 29 29 30 30 32 32 31 31 31
0 2 3 0 -0 -0 1 5 7 9 16 17 23 22 28 24 27 24 24 22 22 24 22 20 11 11 12 12 15 17 17 17 23 35 32 31 32 33 33 32 31 31 32 31 31 30 30 31 32 34 33 33 33 32
2 10 2 0 2 3 3 10 12 16 18 25 32 32 31 30 27 28 29 26 23 25 18 17 14 16 15 19 23 31 29 35 35 34 33 32 33 33 32 32 32 32 32 32 32 32 33 33 32 32 34 37 35 35
8 7 1 2 7 9 13 13 15 19 25 23 29 31 30 29 32 32 30 27 26 26 23 25 23 28 32 26 31 33 33 32 31 31 32 32 32 31 31 32 31 31 31 32 32 32 32 32 32 34 35 37 32 34
4 3 2 3 6 13 15 16 16 22 24 26 25 25 29 31 28 27 28 26 26 27 27 29 33 35 36 34 34 32 32 32 33 31 31 31 30 30 30 29 30 30 30 31 31 32 32 32 32 31 31 30 31 33
5 5 5 6 7 13 16 17 16 21 25 24 25 27 27 29 31 34 30 29 28 31 35 36 37 36 34 33 32 32 30 29 30 31 31 30 29 29 30 30 30 30 30 30 30 29 30 31 31 31 31 30 30 33
11 11 10 13 16 17 19 19 19 20 21 23 23 23 26 27 31 32 31 29 33 35 37 33 33 33 32 31 30 31 29 28 29 29 30 31 29 29 30 30 30 30 31 31 31 32 32 33 33 32 32 34 34 35
16 12 20 18 19 22 22 22 21 19 23 25 25 26 28 29 31 32 28 32 34 35 35 33 31 31 31 31 31 30 29 28 28 28 28 29 30 31 32 31 31 33 33 33 33 33 33 33 33 33 33 38 35 33
17 18 23 25 25 27 28 24 27 27 28 26 26 28 30 30 29 27 33 34 35 31 33 33 31 30 31 30 30 30 29 30 31 31 31 32 32 31 32 32 31 32 33 33 32 33 33 31 32 34 34 34 34 34
21 29 33 34 33 38 34 33 29 28 27 28 29 31 32 32 28 32 36 35 33 31 32 33 34 33 31 31 33 34 33 30 31 31 30 31 33 34 34 34 34 34 33 33 33 33 34 35 34 34 35 36 39 41
32 38 36 42 37 38 39 39 37 32 32 30 31 32 32 30 34 36 37 35 34 35 33 32 32 32 34 33 32 33 33 31 31 33 32 32 33 34 34 34 35 36 35 33 35 37 38 39 38 38 41 43 42 42
42 39 41 45 41 42 42 43 42 40 36 34 34 31 31 32 36 39 38 36 36 35 35 35 34 33 33 33 33 33 34 33 29 32 33 33 31 31 33 33 34 35 37 39 41 41 39 39 43 43 41 41 39 43
41 42 38 37 39 38 39 39 38 39 41 41 39 34 34 37 40 38 32 31 33 35 32 33 32 31 32 32 33 33 33 33 33 33 34 34 35 34 33 34 35 36 39 38 41 43 41 42 42 43 43 44 45 43
37 36 39 38 40 44 46 44 43 42 40 36 35 38 39 41 39 35 31 30 31 32 33 34 33 32 33 33 34 32 33 33 33 33 33 34 35 35 36 37 36 31 35 37 37 39 46 44 44 42 41 38 37 42
34 32 35 39 40 38 38 41 44 42 36 37 36 37 39 36 37 35 32 30 31 31 34 35 34 33 33 34 34 35 34 32 32 32 33 33 34 34 37 40 42 42 43 46 36 30 33 35 35 34 35 36 36 40
33 34 37 38 39 38 37 37 38 34 32 32 32 32 34 34 33 31 32 33 33 33 35 36 37 34 34 34 34 34 36 36 35 34 36 35 36 40 45 45 43 44 45 49 40 40 35 37 37 41 39 38 38 36
31 32 33 34 36 36 35 35 34 31 32 33 33 34 35 35 32 32 33 35 35 37 38 37 38 42 39 38 39 37 34 37 40 40 42 43 44 45 44 42 42 46 47 46 44 45 41 40 42 40 38 37 36 35
35 38 35 33 34 35 37 36 35 34 34 33 35 35 36 36 35 33 33 36 37 36 35 41 43 39 40 40 43 44 36 41 41 39 40 39 41 42 41 41 41 43 43 39 39 39 39 39 37 36 36 36 35 35
43 42 44 42 39 39 40 40 37 36 36 37 38 41 43 41 36 34 36 39 37 36 37 37 37 41 40 39 39 40 38 40 41 32 29 30 31 31 32 34 36 37 37 36 35 35 36 36 36 35 35 35 35 34